| time (UTC) | temp C | wind direction | speed KPH | gust KPH | rain 1hr cm | rain 24hr cm | rain mn cm | humidity % | barometer mb |
| 20260508073016 | 8 | 103 | 1.6 | 3.2 | 0.00 | 0.00 | 0.00 | 85 | 1017.7 |
| 20260508071518 | 9 | 48 | 0.0 | 4.8 | 0.00 | 0.00 | 0.00 | 84 | 1017.6 |
| 20260508070016 | 10 | 126 | 0.0 | 3.2 | 0.00 | 0.00 | 0.00 | 83 | 1017.6 |
| 20260508064525 | 10 | 77 | 0.0 | 3.2 | 0.00 | 0.00 | 0.00 | 83 | 1017.6 |
| 20260508063018 | 10 | 95 | 0.0 | 4.8 | 0.00 | 0.00 | 0.00 | 82 | 1017.8 |
| 20260508061512 | 10 | 111 | 0.0 | 3.2 | 0.00 | 0.00 | 0.00 | 82 | 1017.7 |
| 20260508060012 | 11 | 52 | 0.0 | 3.2 | 0.00 | 0.00 | 0.00 | 81 | 1017.7 |
| 20260508054508 | 11 | 20 | 0.0 | 3.2 | 0.00 | 0.00 | 0.00 | 79 | 1017.7 |
| 20260508053014 | 11 | 360 | 1.6 | 3.2 | 0.00 | 0.00 | 0.00 | 77 | 1017.7 |
| 20260508051511 | 12 | 134 | 0.0 | 3.2 | 0.00 | 0.00 | 0.00 | 74 | 1017.7 |
| 20260508050015 | 13 | 111 | 1.6 | 4.8 | 0.00 | 0.00 | 0.00 | 72 | 1017.6 |
| 20260508044506 | 13 | 49 | 0.0 | 3.2 | 0.00 | 0.00 | 0.00 | 71 | 1017.5 |
| 20260508043012 | 13 | 107 | 0.0 | 3.2 | 0.00 | 0.00 | 0.00 | 71 | 1017.5 |
| 20260508041513 | 14 | 136 | 1.6 | 4.8 | 0.00 | 0.00 | 0.00 | 68 | 1017.4 |
| 20260508040013 | 15 | 109 | 0.0 | 3.2 | 0.00 | 0.00 | 0.00 | 68 | 1017.2 |
| 20260508034519 | 16 | 126 | 0.0 | 3.2 | 0.00 | 0.00 | 0.00 | 68 | 1016.8 |
| 20260508033011 | 16 | 227 | 0.0 | 3.2 | 0.00 | 0.00 | 0.00 | 68 | 1016.7 |
| 20260508031512 | 17 | 227 | 0.0 | 3.2 | 0.00 | 0.00 | 0.00 | 68 | 1016.6 |
| 20260508030012 | 18 | 177 | 0.0 | 4.8 | 0.00 | 0.00 | 0.00 | 61 | 1016.5 |
| 20260508024513 | 18 | 165 | 1.6 | 3.2 | 0.00 | 0.00 | 0.00 | 63 | 1016.5 |
| 20260508023014 | 19 | 110 | 0.0 | 4.8 | 0.00 | 0.00 | 0.00 | 61 | 1016.6 |
| 20260508021510 | 20 | 81 | 0.0 | 4.8 | 0.00 | 0.00 | 0.00 | 57 | 1016.7 |
| 20260508020019 | 20 | 121 | 4.8 | 11.3 | 0.00 | 0.00 | 0.00 | 56 | 1016.7 |
| 20260508014518 | 21 | 181 | 1.6 | 6.4 | 0.00 | 0.00 | 0.00 | 55 | 1016.6 |
| 20260508013014 | 21 | 40 | 1.6 | 6.4 | 0.00 | 0.00 | 0.00 | 53 | 1016.7 |
| 20260508011510 | 21 | 44 | 1.6 | 6.4 | 0.00 | 0.00 | 0.00 | 53 | 1016.9 |
| 20260508010013 | 22 | 155 | 1.6 | 6.4 | 0.00 | 0.00 | 0.00 | 51 | 1017.0 |
| 20260508004514 | 21 | 64 | 0.0 | 6.4 | 0.00 | 0.00 | 0.00 | 51 | 1016.9 |
| 20260508003024 | 21 | 136 | 3.2 | 6.4 | 0.00 | 0.00 | 0.00 | 49 | 1017.1 |
| 20260508001535 | 22 | 74 | 1.6 | 8.0 | 0.00 | 0.00 | 0.00 | 48 | 1017.3 |
| 20260508000012 | 21 | 61 | 1.6 | 8.0 | 0.00 | 0.00 | 0.00 | 49 | 1017.4 |
| 20260507234516 | 21 | 183 | 3.2 | 8.0 | 0.00 | 0.00 | 0.00 | 54 | 1017.4 |
| 20260507233019 | 21 | 66 | 1.6 | 6.4 | 0.00 | 0.00 | 0.00 | 53 | 1017.5 |
| 20260507231522 | 21 | 78 | 1.6 | 6.4 | 0.00 | 0.00 | 0.00 | 55 | 1017.6 |
| 20260507230019 | 21 | 85 | 1.6 | 6.4 | 0.00 | 0.00 | 0.00 | 53 | 1017.8 |
| 20260507224512 | 21 | 324 | 1.6 | 8.0 | 0.00 | 0.00 | 0.00 | 50 | 1018.1 |
| 20260507223021 | 20 | 186 | 1.6 | 8.0 | 0.00 | 0.00 | 0.00 | 50 | 1018.3 |
| 20260507221522 | 20 | 205 | 3.2 | 9.7 | 0.00 | 0.00 | 0.00 | 52 | 1018.5 |
| 20260507220036 | 20 | 139 | 1.6 | 11.3 | 0.00 | 0.00 | 0.00 | 50 | 1018.8 |
| 20260507214512 | 20 | 42 | 0.0 | 6.4 | 0.00 | 0.00 | 0.00 | 52 | 1018.9 |
| 20260507213017 | 20 | 63 | 3.2 | 6.4 | 0.00 | 0.00 | 0.00 | 53 | 1019.2 |
| 20260507211522 | 20 | 168 | 1.6 | 8.0 | 0.00 | 0.00 | 0.00 | 55 | 1019.3 |
| 20260507210022 | 18 | 209 | 3.2 | 8.0 | 0.00 | 0.00 | 0.00 | 57 | 1019.4 |
| 20260507204521 | 18 | 110 | 1.6 | 6.4 | 0.00 | 0.00 | 0.00 | 55 | 1019.6 |
| 20260507203016 | 18 | 190 | 1.6 | 8.0 | 0.00 | 0.00 | 0.00 | 56 | 1019.8 |
| 20260507201522 | 18 | 32 | 1.6 | 6.4 | 0.00 | 0.00 | 0.00 | 56 | 1020.1 |
| 20260507200022 | 17 | 65 | 3.2 | 9.7 | 0.00 | 0.00 | 0.00 | 58 | 1020.2 |
| 20260507194522 | 17 | 184 | 6.4 | 11.3 | 0.00 | 0.00 | 0.00 | 56 | 1020.3 |
| 20260507193028 | 17 | 53 | 1.6 | 9.7 | 0.00 | 0.00 | 0.00 | 58 | 1020.5 |
| 20260507191521 | 17 | 86 | 3.2 | 9.7 | 0.00 | 0.00 | 0.00 | 62 | 1020.7 |
| 20260507190021 | 16 | 120 | 1.6 | 12.9 | 0.00 | 0.00 | 0.00 | 59 | 1020.8 |
| 20260507184524 | 16 | 225 | 3.2 | 8.0 | 0.00 | 0.00 | 0.00 | 62 | 1020.9 |
| 20260507183026 | 15 | 344 | 3.2 | 8.0 | 0.00 | 0.00 | 0.00 | 63 | 1021.0 |
| 20260507181525 | 15 | 333 | 1.6 | 6.4 | 0.00 | 0.00 | 0.00 | 64 | 1021.1 |
| 20260507180024 | 15 | 338 | 1.6 | 4.8 | 0.00 | 0.00 | 0.00 | 65 | 1021.3 |
| 20260507174537 | 15 | 209 | 1.6 | 3.2 | 0.00 | 0.00 | 0.00 | 66 | 1021.5 |
| 20260507173030 | 13 | 54 | 1.6 | 6.4 | 0.00 | 0.00 | 0.00 | 72 | 1021.6 |
| 20260507171525 | 13 | 101 | 1.6 | 8.0 | 0.00 | 0.00 | 0.00 | 72 | 1021.6 |
| 20260507170036 | 13 | 337 | 1.6 | 11.3 | 0.00 | 0.00 | 0.00 | 73 | 1021.6 |
| 20260507164522 | 12 | 319 | 3.2 | 9.7 | 0.00 | 0.00 | 0.00 | 73 | 1021.7 |
| 20260507163026 | 12 | 352 | 3.2 | 9.7 | 0.00 | 0.00 | 0.00 | 1021.8 | |
| 20260507161526 | 12 | 5 | 4.8 | 12.9 | 0.00 | 0.00 | 0.00 | 1021.7 | |
| 20260507160026 | 12 | 293 | 1.6 | 9.7 | 0.00 | 0.00 | 0.00 | 73 | 1021.7 |
| 20260507154523 | 12 | 317 | 3.2 | 12.9 | 0.00 | 0.00 | 0.00 | 73 | 1021.7 |
| 20260507153025 | 12 | 286 | 3.2 | 9.7 | 0.00 | 0.00 | 0.00 | 74 | 1021.7 |
| 20260507151526 | 11 | 332 | 1.6 | 6.4 | 0.00 | 0.00 | 0.00 | 76 | 1021.8 |
| 20260507150016 | 11 | 287 | 3.2 | 9.7 | 0.00 | 0.00 | 0.00 | 75 | 1021.8 |
| 20260507144520 | 11 | 334 | 3.2 | 6.4 | 0.00 | 0.00 | 0.00 | 75 | 1021.8 |
| 20260507143028 | 11 | 323 | 0.0 | 4.8 | 0.00 | 0.00 | 0.00 | 77 | 1021.7 |
| 20260507141525 | 11 | 298 | 1.6 | 3.2 | 0.00 | 0.00 | 0.00 | 77 | 1021.7 |
| 20260507140030 | 11 | 309 | 1.6 | 3.2 | 0.00 | 0.00 | 0.00 | 78 | 1021.6 |
| 20260507134520 | 11 | 327 | 0.0 | 3.2 | 0.00 | 0.00 | 0.00 | 78 | 1021.5 |
| 20260507133023 | 11 | 328 | 0.0 | 3.2 | 0.00 | 0.00 | 0.00 | 78 | 1021.2 |
| 20260507131535 | 11 | 331 | 0.0 | 3.2 | 0.00 | 0.00 | 0.00 | 77 | 1021.3 |
| 20260507130025 | 11 | 304 | 1.6 | 3.2 | 0.00 | 0.00 | 0.00 | 77 | 1021.3 |
| 20260507124521 | 11 | 301 | 0.0 | 3.2 | 0.00 | 0.00 | 0.00 | 78 | 1021.3 |
| 20260507123024 | 11 | 277 | 0.0 | 3.2 | 0.00 | 0.00 | 0.00 | 79 | 1021.4 |
| 20260507121526 | 11 | 281 | 0.0 | 3.2 | 0.00 | 0.00 | 0.00 | 79 | 1021.4 |
| 20260507120023 | 11 | 286 | 0.0 | 3.2 | 0.00 | 0.00 | 0.00 | 79 | 1021.6 |
| 20260507114515 | 11 | 279 | 0.0 | 3.2 | 0.00 | 0.00 | 0.00 | 78 | 1021.7 |
| 20260507113024 | 11 | 278 | 0.0 | 3.2 | 0.00 | 0.00 | 0.00 | 79 | 1021.7 |
| 20260507111507 | 11 | 284 | 0.0 | 3.2 | 0.00 | 0.00 | 0.00 | 79 | 1021.8 |
| 20260507110008 | 11 | 286 | 0.0 | 3.2 | 0.00 | 0.00 | 0.00 | 79 | 1021.9 |
| 20260507104516 | 11 | 294 | 0.0 | 3.2 | 0.00 | 0.00 | 0.00 | 79 | 1021.9 |
| 20260507103019 | 11 | 286 | 0.0 | 3.2 | 0.00 | 0.00 | 0.00 | 79 | 1022.0 |
| 20260507101524 | 12 | 315 | 0.0 | 3.2 | 0.00 | 0.00 | 0.00 | 79 | 1022.0 |
| 20260507100008 | 12 | 289 | 0.0 | 3.2 | 0.00 | 0.00 | 0.00 | 78 | 1022.1 |
| 20260507094512 | 12 | 279 | 1.6 | 3.2 | 0.00 | 0.00 | 0.00 | 78 | 1022.2 |
| 20260507093018 | 12 | 281 | 0.0 | 3.2 | 0.00 | 0.00 | 0.00 | 79 | 1022.2 |
| 20260507091524 | 12 | 286 | 0.0 | 3.2 | 0.00 | 0.00 | 0.00 | 78 | 1022.4 |
| 20260507090026 | 12 | 281 | 1.6 | 3.2 | 0.00 | 0.00 | 0.00 | 79 | 1022.5 |
| 20260507084513 | 12 | 331 | 1.6 | 3.2 | 0.00 | 0.00 | 0.00 | 78 | 1022.5 |
| 20260507083016 | 12 | 337 | 1.6 | 3.2 | 0.00 | 0.00 | 0.00 | 78 | 1022.5 |
| 20260507081534 | 12 | 275 | 0.0 | 4.8 | 0.00 | 0.00 | 0.00 | 78 | 1022.4 |
| 20260507080022 | 12 | 349 | 3.2 | 9.7 | 0.00 | 0.00 | 0.00 | 78 | 1022.4 |
| 20260507074544 | 12 | 360 | 3.2 | 8.0 | 0.00 | 0.00 | 0.00 | 77 | 1022.4 |